Wind_Speed
18 20 22 23 24 26 28 29 29 30 31 32 33 34 33 33 32 32 33 33 33 35 35 36 37 35 31 38 35 26 30 30 30 28 26 19 16 21 28 24 21 18 18 20 22
18 18 19 19 20 21 22 24 25 27 27 29 30 30 32 33 34 34 34 34 35 37 37 38 39 38 40 41 43 41 38 30 32 27 30 32 36 32 28 24 21 18 20 19 23
20 19 18 19 19 20 20 21 21 21 22 23 24 25 25 26 29 31 32 33 34 36 38 40 40 41 42 43 41 42 42 39 38 38 33 31 31 28 27 24 21 20 16 15 18
19 19 19 19 18 17 18 18 18 18 19 21 21 22 23 23 24 25 25 26 27 29 30 32 33 35 36 37 38 40 41 40 38 37 33 32 30 29 26 24 20 17 16 12 17
15 18 18 19 17 16 17 17 17 18 19 19 20 21 21 22 23 23 23 23 25 26 27 28 29 31 32 32 31 29 28 31 33 34 35 32 31 30 27 19 15 21 13 12 15
11 13 15 15 14 14 13 13 14 13 13 13 14 15 16 17 18 17 16 16 18 20 23 25 29 32 34 33 30 28 27 26 24 25 29 33 30 24 22 19 23 27 25 15 14
8 10 10 10 9 9 9 9 7 6 5 4 4 3 5 7 8 9 9 8 9 9 13 17 21 30 34 34 32 28 26 24 22 21 22 24 29 28 18 22 33 33 24 19 14
8 9 9 9 9 9 8 8 7 6 6 13 15 12 10 10 7 6 4 1 2 5 10 15 20 23 28 30 29 27 28 26 23 20 18 19 22 25 17 29 23 22 22 18 16
10 11 9 11 13 12 11 11 9 10 14 12 8 8 8 5 4 2 1 3 4 8 12 19 20 18 16 22 25 25 29 26 23 20 17 17 18 24 29 35 25 23 21 21 19
12 11 14 15 15 13 11 9 11 12 11 5 3 4 3 4 6 5 4 5 5 10 12 18 20 16 5 12 17 18 22 25 22 18 15 15 16 21 24 20 23 33 21 23 19
12 17 17 15 14 11 10 11 11 10 4 1 1 3 6 6 6 6 6 6 7 10 12 15 21 17 8 1 6 9 13 19 22 16 17 16 15 16 22 29 21 26 25 26 24
19 17 15 16 14 10 12 11 9 7 5 4 4 4 4 4 3 4 5 5 7 8 12 16 15 19 12 3 1 4 6 13 18 20 17 13 15 16 28 35 30 23 29 27 22
19 17 18 16 13 11 10 9 6 3 1 2 3 4 3 2 2 3 6 7 7 9 12 14 14 15 16 11 3 2 4 6 14 19 15 14 13 9 20 33 32 31 21 27 28
19 20 18 16 14 13 10 7 3 2 2 2 2 2 2 1 1 3 6 7 9 11 12 13 13 13 13 12 11 5 3 5 9 18 14 18 14 6 8 28 36 33 28 28 25
22 22 19 16 15 12 8 6 4 4 5 5 6 6 6 5 4 4 5 6 8 10 11 12 13 13 13 11 9 8 7 4 5 14 22 19 24 15 10 20 34 39 37 32 34
25 23 21 18 16 12 9 7 7 7 6 5 4 5 5 5 5 5 7 9 11 13 14 16 16 16 15 13 12 12 10 7 4 12 17 21 28 20 27 20 17 41 39 33 34
27 24 21 19 16 13 9 10 11 9 8 8 8 7 7 7 7 8 10 12 14 17 18 18 18 18 17 17 16 15 13 12 10 9 22 24 32 35 36 29 18 21 39 39 32
29 26 23 20 17 14 12 13 11 7 6 8 11 10 10 11 11 13 15 17 19 20 22 22 21 23 24 21 21 18 18 19 17 17 16 31 33 36 35 36 39 34 31 33 37
30 28 25 21 18 15 14 11 6 3 3 6 8 11 12 12 14 17 21 23 25 28 29 28 27 27 27 28 27 26 25 24 24 24 23 26 27 31 37 37 44 43 40 37 33
31 29 27 23 20 18 14 9 4 3 4 6 11 14 15 16 19 23 27 29 31 32 32 31 30 31 31 32 31 30 27 28 28 28 30 30 30 30 23 15 30 52 46 39 39
32 30 27 25 22 19 14 11 7 7 8 10 14 15 17 21 25 29 31 32 31 32 31 31 31 32 31 33 33 31 30 30 31 33 28 32 34 34 32 40 30 37 50 49 44
33 32 30 26 22 19 17 14 11 11 11 13 15 17 20 23 26 29 29 29 31 32 31 29 30 31 32 33 32 31 31 30 30 32 29 28 35 31 42 43 52 43 48 51 47
35 32 31 28 24 21 18 16 15 14 14 15 17 17 20 24 29 31 33 31 30 33 29 29 30 29 31 31 32 27 29 30 31 30 30 29 32 30 38 43 46 39 34 46 49
34 33 32 29 25 23 19 17 16 16 17 19 20 23 26 29 32 35 36 36 30 34 29 32 32 30 30 32 35 27 31 33 32 31 32 30 31 35 31 36 41 43 35 38 37
34 33 31 30 27 23 21 20 19 20 21 23 24 27 31 35 38 38 39 39 38 36 38 35 36 39 33 34 39 34 34 36 35 33 32 32 31 36 30 31 34 36 8 38 44
35 32 30 30 27 24 23 24 24 24 25 27 30 31 35 38 40 41 41 43 44 47 42 42 43 44 43 42 42 43 38 41 41 38 36 34 33 38 39 24 28 28 26 26 50
32 32 31 31 28 26 26 26 27 28 30 31 35 38 40 42 44 46 49 50 51 53 53 49 46 46 46 51 49 45 47 49 46 44 41 37 35 37 40 28 25 16 21 32 36
Wind_Direction
233 233 234 235 237 240 242 243 244 245 247 248 249 250 250 250 250 250 250 251 251 250 249 250 253 254 261 253 249 267 258 260 259 258 244 244 248 274 274 279 280 288 309 323 321
234 232 230 229 231 233 237 240 243 246 248 252 254 255 253 254 254 254 254 254 254 254 253 252 252 252 252 253 253 260 260 257 256 248 251 241 251 266 270 271 282 282 300 318 317
237 236 234 235 235 237 240 244 246 249 252 254 256 258 257 256 256 256 256 255 255 255 256 256 254 254 254 255 255 256 256 252 250 254 251 250 251 256 264 266 270 280 290 304 309
237 236 235 236 239 241 244 247 248 251 252 255 257 258 258 258 258 258 257 257 257 256 256 257 256 254 253 254 253 253 255 253 250 249 249 250 249 249 250 253 270 282 272 292 294
234 234 239 241 243 243 244 247 249 251 254 258 259 260 260 262 263 264 264 265 263 263 262 261 260 258 257 254 251 252 253 254 251 247 244 242 247 245 247 259 264 284 275 286 287
225 226 232 232 237 241 242 240 241 246 251 257 264 265 263 260 262 265 265 268 270 270 269 267 265 261 257 255 252 250 249 252 254 248 244 238 240 240 243 237 239 246 282 276 282
215 220 219 220 219 215 213 219 223 224 233 244 247 255 247 250 251 254 262 276 281 282 282 277 270 264 259 253 249 249 248 246 247 248 246 241 233 236 231 234 239 249 260 255 264
197 193 189 182 186 186 176 161 155 144 120 114 104 90 85 85 90 90 108 88 311 301 303 314 304 284 259 250 244 238 262 245 242 242 243 239 235 223 248 223 236 241 244 243 260
178 168 174 168 163 159 154 146 143 133 129 116 87 88 85 77 70 58 24 341 335 333 331 341 332 314 265 231 230 228 231 239 237 237 238 240 236 218 215 233 242 241 236 256 262
172 182 166 159 160 158 156 148 145 146 140 129 86 59 35 10 360 336 294 315 336 345 346 358 356 356 313 213 220 230 229 232 236 233 236 239 239 227 217 211 251 249 234 239 261
180 165 165 169 167 165 155 146 144 161 167 201 261 300 319 325 325 331 330 299 321 345 360 5 14 14 24 160 216 230 236 230 226 223 224 226 223 231 213 212 218 237 250 260 247
166 168 172 171 170 166 157 157 174 188 210 241 278 298 310 325 342 349 357 355 344 358 5 11 17 29 28 29 272 224 242 231 219 213 216 214 224 231 223 217 227 244 257 244 237
173 174 170 170 172 172 162 161 175 196 250 311 321 322 322 339 4 359 360 356 355 355 355 6 19 23 31 33 31 265 264 235 219 197 196 201 189 229 244 227 218 220 236 239 243
182 180 178 174 172 170 163 154 152 102 59 23 30 21 359 14 343 339 344 341 336 340 347 354 9 18 19 16 23 8 278 247 210 200 173 197 185 262 280 242 228 216 231 233 240
181 183 184 177 171 164 152 146 132 112 99 83 65 56 51 35 26 356 336 327 328 331 337 346 351 1 359 1 2 357 5 279 229 211 198 193 207 173 187 230 227 218 226 240 227
182 185 185 181 172 161 152 137 126 105 83 72 54 28 18 8 353 342 327 323 323 324 321 323 328 328 329 329 333 337 333 329 262 210 199 253 224 220 215 204 239 225 228 240 239
183 186 186 183 173 160 160 142 115 99 73 46 28 11 346 333 327 322 317 320 320 321 319 318 318 315 314 314 308 306 303 298 284 250 208 230 238 228 227 216 240 219 219 231 237
186 187 189 187 176 167 163 141 125 100 66 38 25 11 354 340 330 319 314 315 315 313 311 309 305 304 304 304 300 294 286 279 273 262 244 226 239 235 237 241 231 236 234 232 225
188 188 191 188 178 176 171 160 141 122 41 6 3 357 344 332 326 320 314 310 308 306 304 302 300 298 296 296 295 292 286 274 263 262 259 245 248 245 240 241 246 252 252 249 235
188 190 191 189 184 183 183 179 181 204 299 330 334 330 331 331 325 319 313 305 301 302 301 298 296 295 294 292 291 290 284 283 279 267 258 257 246 243 235 197 281 245 248 246 239
190 191 193 190 189 191 197 214 227 260 288 305 320 324 326 324 321 318 313 309 305 302 301 297 292 292 294 293 294 290 282 279 278 280 273 258 248 238 223 207 235 241 237 243 243
192 194 195 195 196 201 214 225 241 265 285 302 311 321 324 329 330 328 325 321 307 308 301 299 290 290 293 293 291 288 288 287 283 279 280 272 259 241 231 229 240 242 243 240 242
195 196 198 201 204 212 223 236 250 271 289 296 302 311 315 319 325 330 332 328 312 306 307 296 296 294 293 292 288 293 289 285 285 280 279 278 268 242 247 238 241 243 238 243 239
199 199 201 205 210 217 229 242 258 273 282 293 299 302 306 312 318 322 326 328 321 308 300 291 295 293 296 295 294 297 291 288 286 283 280 274 271 268 249 249 239 243 240 254 249
204 201 205 210 216 222 234 245 258 272 282 293 294 298 305 310 311 314 318 324 321 317 308 301 287 284 285 285 288 290 289 287 284 280 277 275 269 265 258 251 240 233 160 276 269
200 207 211 215 222 230 242 250 260 274 281 289 294 301 305 308 310 311 314 316 318 319 310 303 297 289 284 279 278 282 287 284 281 279 274 272 268 264 258 242 248 238 195 194 277
204 210 215 219 227 237 247 256 266 275 281 287 295 301 306 305 309 309 311 312 314 314 312 307 298 289 285 280 277 280 277 278 277 275 272 268 266 264 264 250 247 235 181 192 247
Height
10911 10912 10914 10916 10918 10920 10922 10924 10925 10926 10928 10929 10930 10932 10935 10937 10940 10942 10944 10946 10949 10950 10952 10954 10954 10957 10963 10957 10958 10960 10961 10964 10967 10970 10974 10971 10966 10967 10968 10968 10969 10970 10969 10965 10964
10908 10909 10911 10912 10914 10916 10917 10919 10920 10921 10923 10924 10925 10927 10930 10932 10933 10935 10938 10941 10942 10942 10944 10946 10948 10950 10949 10951 10952 10952 10953 10958 10958 10960 10963 10965 10964 10964 10964 10963 10967 10968 10966 10964 10961
10904 10906 10907 10909 10911 10912 10913 10915 10916 10918 10919 10919 10920 10922 10924 10926 10927 10928 10931 10933 10934 10934 10935 10936 10941 10943 10940 10940 10943 10945 10945 10951 10952 10954 10957 10958 10959 10960 10961 10961 10963 10965 10964 10964 10962
10900 10902 10904 10906 10907 10909 10911 10912 10913 10914 10915 10915 10917 10918 10919 10920 10921 10922 10924 10926 10927 10927 10928 10928 10931 10932 10933 10933 10936 10938 10939 10942 10945 10948 10950 10950 10953 10956 10957 10958 10960 10962 10959 10961 10960
10896 10898 10900 10902 10904 10906 10907 10908 10909 10910 10911 10912 10912 10913 10914 10915 10915 10917 10919 10920 10920 10921 10922 10922 10923 10922 10924 10924 10927 10930 10932 10934 10937 10940 10942 10944 10947 10951 10953 10957 10958 10960 10957 10958 10957
10893 10895 10897 10899 10901 10902 10904 10905 10906 10907 10908 10909 10909 10910 10910 10911 10911 10913 10914 10915 10916 10916 10916 10916 10915 10914 10914 10916 10919 10923 10926 10928 10930 10934 10935 10938 10943 10947 10951 10953 10955 10957 10957 10956 10954
10891 10892 10894 10897 10898 10900 10901 10903 10904 10905 10906 10906 10907 10907 10907 10907 10908 10910 10911 10912 10913 10913 10912 10911 10909 10906 10905 10907 10913 10917 10922 10923 10926 10928 10930 10933 10938 10943 10950 10946 10950 10952 10953 10953 10953
10889 10891 10893 10895 10897 10898 10900 10902 10903 10904 10905 10906 10907 10907 10908 10908 10909 10910 10911 10911 10911 10911 10910 10906 10901 10896 10896 10900 10905 10914 10919 10919 10921 10923 10926 10929 10933 10940 10946 10946 10947 10948 10949 10950 10951
10888 10890 10892 10895 10897 10899 10900 10902 10903 10905 10906 10907 10908 10909 10909 10910 10910 10910 10910 10910 10910 10909 10907 10902 10896 10890 10888 10892 10898 10905 10910 10912 10916 10920 10925 10928 10932 10935 10936 10941 10944 10946 10948 10947 10948
10888 10890 10892 10895 10897 10899 10901 10903 10904 10906 10907 10908 10909 10909 10910 10910 10910 10909 10909 10909 10909 10907 10905 10901 10894 10889 10886 10889 10896 10900 10903 10907 10912 10919 10924 10926 10930 10933 10938 10942 10944 10942 10943 10944 10947
10887 10889 10892 10895 10897 10900 10902 10903 10905 10907 10907 10909 10909 10909 10909 10909 10908 10908 10907 10907 10907 10906 10904 10901 10896 10891 10891 10893 10895 10897 10899 10903 10909 10915 10917 10920 10922 10927 10931 10935 10937 10938 10940 10941 10943
10887 10889 10892 10895 10897 10900 10902 10904 10905 10907 10907 10908 10908 10908 10907 10907 10907 10907 10907 10906 10906 10905 10904 10901 10898 10896 10895 10894 10894 10895 10897 10900 10904 10909 10913 10918 10921 10922 10923 10925 10929 10934 10938 10939 10941
10887 10889 10891 10894 10897 10899 10902 10904 10905 10906 10906 10907 10907 10906 10906 10906 10906 10906 10906 10905 10905 10904 10903 10902 10901 10898 10896 10895 10894 10895 10896 10898 10902 10905 10908 10913 10916 10916 10917 10919 10920 10926 10932 10935 10937
10886 10888 10891 10894 10897 10899 10901 10903 10904 10905 10905 10906 10906 10905 10905 10906 10906 10906 10906 10905 10904 10904 10903 10901 10900 10899 10899 10897 10895 10895 10895 10896 10899 10904 10906 10908 10911 10912 10913 10915 10917 10920 10926 10931 10931
10884 10887 10890 10893 10896 10898 10900 10902 10903 10903 10905 10905 10905 10905 10905 10905 10906 10905 10905 10904 10903 10903 10902 10901 10900 10900 10899 10898 10896 10896 10895 10896 10898 10901 10903 10904 10904 10904 10908 10907 10910 10916 10921 10923 10927
10883 10886 10889 10892 10894 10897 10899 10901 10902 10902 10903 10904 10905 10905 10905 10904 10904 10904 10904 10903 10902 10901 10900 10899 10898 10898 10898 10897 10896 10896 10896 10896 10896 10897 10902 10909 10899 10899 10901 10901 10904 10907 10913 10919 10921
10881 10884 10887 10890 10893 10895 10898 10900 10901 10901 10902 10902 10903 10903 10903 10903 10903 10903 10902 10901 10900 10899 10898 10897 10896 10895 10895 10895 10894 10894 10894 10893 10894 10894 10896 10892 10895 10893 10894 10900 10900 10902 10909 10914 10916
10879 10882 10885 10888 10891 10894 10897 10898 10900 10901 10901 10901 10901 10901 10901 10900 10900 10900 10899 10898 10897 10896 10894 10893 10892 10891 10890 10890 10890 10890 10889 10889 10889 10889 10891 10890 10890 10892 10888 10892 10895 10901 10902 10907 10910
10876 10879 10883 10886 10889 10892 10895 10897 10898 10899 10900 10900 10900 10900 10900 10899 10898 10897 10895 10894 10892 10890 10889 10887 10886 10885 10884 10882 10883 10883 10882 10882 10883 10883 10884 10886 10888 10889 10890 10893 10892 10895 10899 10901 10903
10872 10876 10880 10884 10886 10889 10892 10894 10896 10897 10898 10898 10898 10898 10897 10896 10895 10894 10891 10889 10886 10884 10882 10880 10879 10877 10876 10875 10875 10874 10874 10873 10873 10874 10875 10875 10878 10880 10887 10896 10882 10886 10889 10893 10896
10869 10873 10877 10881 10883 10886 10889 10891 10893 10894 10894 10895 10895 10894 10893 10892 10890 10888 10885 10882 10880 10876 10874 10873 10871 10869 10868 10867 10865 10864 10864 10864 10864 10863 10864 10863 10867 10870 10879 10873 10863 10868 10877 10881 10886
10865 10870 10873 10877 10881 10884 10886 10888 10890 10891 10891 10891 10891 10890 10888 10887 10885 10883 10880 10876 10871 10869 10867 10866 10863 10862 10861 10859 10857 10856 10855 10855 10854 10853 10854 10854 10850 10862 10860 10864 10860 10866 10870 10873 10879
10861 10866 10870 10874 10877 10880 10883 10885 10886 10886 10886 10887 10886 10885 10884 10882 10880 10877 10874 10872 10868 10863 10862 10858 10856 10855 10852 10850 10847 10849 10847 10845 10845 10844 10845 10844 10841 10850 10848 10855 10856 10861 10866 10865 10871
10857 10863 10866 10870 10873 10876 10879 10880 10881 10881 10881 10881 10880 10879 10878 10876 10874 10870 10868 10864 10863 10858 10858 10854 10850 10847 10845 10840 10836 10840 10838 10836 10835 10835 10836 10837 10835 10832 10839 10842 10849 10850 10859 10862 10866
10853 10858 10862 10866 10869 10872 10874 10875 10876 10876 10876 10875 10874 10872 10870 10868 10865 10863 10859 10855 10852 10852 10846 10846 10845 10840 10840 10835 10828 10830 10829 10827 10826 10826 10827 10827 10828 10824 10827 10830 10835 10846 10858 10867 10863
10849 10854 10858 10862 10865 10867 10869 10870 10871 10870 10870 10869 10866 10865 10862 10860 10857 10853 10851 10846 10843 10838 10838 10834 10830 10830 10830 10824 10823 10819 10818 10815 10814 10815 10817 10817 10819 10817 10817 10830 10831 10839 10852 10855 10849
10846 10850 10853 10857 10859 10861 10863 10863 10864 10863 10862 10862 10859 10856 10855 10850 10847 10842 10839 10834 10832 10828 10822 10820 10820 10816 10815 10809 10809 10811 10804 10799 10800 10802 10803 10807 10809 10808 10808 10817 10825 10834 10843 10844 10850